Regional Weather Roundup
Issued by NWS Cleveland, OH

Home | Current Version | Previous Version | Text Only | Print | Product List | Glossary Off
Versions: 1 2 3 4 5 6 7 8 9 10 11 12 13 14 15 16 17 18 19 20 21 22 23 24 25 26 27 28 29 30 31 32 33 34 35 36 37 38 39 40 41 42 43 44 45 46 47 48 49 50

067
ASUS41 KCLE 262202
RWRCLE
OHIO REGIONAL WEATHER ROUNDUP
NATIONAL WEATHER SERVICE CLEVELAND, OH
600 PM EDT TUE JUL 26 2016

NOTE: "FAIR" INDICATES FEW OR NO CLOUDS BELOW 12,000 FEET WITH NO
SIGNIFICANT WEATHER AND/OR OBSTRUCTIONS TO VISIBILITY.

OHZ001>008-015>018-024>027-034-035-043-044-262300-
   NORTHWEST OHIO

CITY           SKY/WX    TMP DP  RH WIND       PRES   REMARKS
DEFIANCE       SUNNY     87  60  40 CALM      30.00F
FINDLAY        MOSUNNY   86  61  42 E3        29.99F
TOLEDO EXPRESS MOSUNNY   86  60  41 VRB5      29.99F
TOLEDO EXEC    SUNNY     85  58  39 E7        30.00F
LIMA           PTSUNNY   82  67  60 CALM      30.00F
$$

OHZ009>014-019>023-028>033-038-089-262300-
   NORTHEAST OHIO

CITY           SKY/WX    TMP DP  RH WIND       PRES   REMARKS
CLE-HOPKINS    CLOUDY    82  57  42 N10       30.03F
CLE-LAKEFRONT  CLOUDY    79  63  57 NE8       30.00F
CUY CO. ARPT   PTSUNNY  N/A N/A N/A E10       30.03F
LORAIN-ELYRIA  CLOUDY    80  58  46 NE9       30.01F
ASHTABULA      PTSUNNY   79  60  52 N5        30.04R
AKRON-CANTON   CLOUDY    84  57  39 CALM      30.01F
WOOSTER        PTSUNNY   81  58  45 N7        30.01F
MANSFIELD      CLOUDY    82  63  52 N8        30.02F
YOUNGSTOWN     PTSUNNY   82  59  45 NE10      30.01F
$$

OHZ042-051>053-060>062-070>072-077>081-262300-
  SOUTHWEST OHIO

CITY           SKY/WX    TMP DP  RH WIND       PRES   REMARKS
CINC-COVINGTON PTSUNNY   83  74  74 E5        30.00F
CINC-LUNKEN    PTSUNNY   83  74  74 E5        29.99F
HAMILTON       CLOUDY    83  71  67 NW3       30.00F
DAYTON         PTSUNNY   80  69  69 NW5       30.01F
WRIGHT-PAT AFB MOSUNNY   82  71  70 W3        30.00S
DAYTON GENERAL MOSUNNY   83  69  62 CALM      30.00F
WILMINGTON     PTSUNNY   80  72  76 VRB3      30.01S
$$

OHZ036-037-039>041-045>050-054>059-063>069-073>076-082>088-262300-
  CENTRAL AND SOUTHEAST OHIO

CITY           SKY/WX    TMP DP  RH WIND       PRES   REMARKS
COLUMBUS       CLOUDY    82  69  64 S8        29.99R
OSU AIRPORT    CLOUDY    84  69  60 N3        29.99R
BOLTON FIELD   MOSUNNY   81  73  78 SW8       30.01R
RICKENBACK AFB CLOUDY    78  72  82 S7        30.00R
NEWARK         CLOUDY    84  69  60 SW5       29.99R
MARION         PTSUNNY   83  65  54 N7        30.00F
LANCASTER      CLOUDY    78  75  90 S5        30.01R
ZANESVILLE     CLOUDY    85  69  58 SW3       29.99S
NEW PHILLY     CLOUDY    88  61  40 N5        29.99F
$$




USA.gov is the U.S. government's official web portal to all federal, state and local government web resources and services.